DAL1711 KMSP-KGRR

Flight info

Callsign DAL1711
Flight time 1h 21m
Altitude 37000
Route COULT7 DLL J34 ADALE
Aircraft A320/M-SDE3FGHIRWY/LB1

Departure

Time 2026-05-04 01:06
Airport Minneapolis–Saint Paul International Airport / Wold–Chamberlain Field (KMSP)

Arrival

Time 2026-05-04 02:28
Airport Gerald R. Ford International Airport (KGRR)
Time Latitude Longitude Altitude Speed Heading
2026-05-04 00:29 44.88332 -93.21631 825 ft 0 kts 51°
2026-05-04 00:54 44.88321 -93.21651 821 ft 2 kts 51°
2026-05-04 00:54 44.88311 -93.21669 824 ft 2 kts 51°
2026-05-04 00:54 44.88300 -93.21689 823 ft 3 kts 33°
2026-05-04 00:55 44.88283 -93.21698 822 ft 2 kts
2026-05-04 00:55 44.88266 -93.21701 823 ft 3 kts 354°
2026-05-04 00:55 44.88249 -93.21693 823 ft 3 kts 317°
2026-05-04 00:55 44.88242 -93.21683 825 ft 0 kts 302°
2026-05-04 00:57 44.88245 -93.21690 825 ft 2 kts 302°
2026-05-04 00:57 44.88252 -93.21704 825 ft 2 kts 302°
2026-05-04 00:57 44.88266 -93.21735 825 ft 5 kts 302°
2026-05-04 00:58 44.88287 -93.21787 825 ft 7 kts 301°
2026-05-04 00:58 44.88324 -93.21838 825 ft 8 kts 335°
2026-05-04 00:58 44.88383 -93.21837 825 ft 10 kts 31°
2026-05-04 00:58 44.88435 -93.21769 825 ft 11 kts 44°
2026-05-04 00:59 44.88489 -93.21694 825 ft 11 kts 44°
2026-05-04 00:59 44.88544 -93.21618 824 ft 11 kts 47°
2026-05-04 00:59 44.88599 -93.21535 822 ft 12 kts 44°
2026-05-04 00:59 44.88660 -93.21452 825 ft 13 kts 44°
2026-05-04 01:00 44.88726 -93.21360 825 ft 14 kts 45°
2026-05-04 01:00 44.88781 -93.21282 825 ft 9 kts 47°
2026-05-04 01:00 44.88780 -93.21204 823 ft 8 kts 120°
2026-05-04 01:00 44.88752 -93.21142 825 ft 7 kts 122°
2026-05-04 01:01 44.88724 -93.21078 824 ft 10 kts 121°
2026-05-04 01:01 44.88662 -93.20947 821 ft 21 kts 124°
2026-05-04 01:01 44.88608 -93.20809 822 ft 19 kts 121°
2026-05-04 01:01 44.88535 -93.20639 824 ft 23 kts 122°
2026-05-04 01:02 44.88461 -93.20468 823 ft 24 kts 121°
2026-05-04 01:02 44.88389 -93.20301 825 ft 9 kts 121°
2026-05-04 01:02 44.88357 -93.20228 825 ft 8 kts 121°
2026-05-04 01:02 44.88330 -93.20165 825 ft 8 kts 121°
2026-05-04 01:03 44.88305 -93.20108 825 ft 13 kts 121°
2026-05-04 01:03 44.88255 -93.19993 823 ft 13 kts 121°
2026-05-04 01:03 44.88211 -93.19890 825 ft 13 kts 121°
2026-05-04 01:03 44.88150 -93.19750 825 ft 18 kts 122°
2026-05-04 01:04 44.88091 -93.19613 825 ft 8 kts 118°
2026-05-04 01:04 44.88072 -93.19565 825 ft 4 kts 119°
2026-05-04 01:04 44.88060 -93.19536 822 ft 3 kts 118°
2026-05-04 01:04 44.88056 -93.19516 825 ft 1 kts 100°
2026-05-04 01:05 44.88060 -93.19478 825 ft 5 kts 69°
2026-05-04 01:05 44.88083 -93.19449 825 ft 4 kts 25°
2026-05-04 01:05 44.88128 -93.19429 825 ft 6 kts 356°
2026-05-04 01:05 44.88173 -93.19509 823 ft 26 kts 301°
2026-05-04 01:06 44.88413 -93.20061 824 ft 97 kts 301°
2026-05-04 01:06 44.88846 -93.21056 826 ft 149 kts 302°
2026-05-04 01:06 44.89369 -93.22262 1429 ft 143 kts 297°
2026-05-04 01:06 44.89884 -93.23508 1948 ft 149 kts 297°
2026-05-04 01:07 44.90409 -93.24805 2482 ft 155 kts 297°
2026-05-04 01:07 44.91007 -93.26259 2571 ft 190 kts 298°
2026-05-04 01:07 44.91724 -93.27965 2875 ft 215 kts 299°
2026-05-04 01:07 44.92517 -93.29846 3533 ft 225 kts 299°
2026-05-04 01:08 44.93502 -93.31583 4381 ft 232 kts 321°
2026-05-04 01:08 44.95016 -93.32419 5209 ft 242 kts 352°
2026-05-04 01:08 44.96691 -93.32032 6025 ft 252 kts 22°
2026-05-04 01:08 44.98074 -93.30463 6809 ft 263 kts 52°
2026-05-04 01:09 44.98846 -93.28091 7596 ft 270 kts 71°
2026-05-04 01:09 44.99327 -93.25495 8412 ft 275 kts 74°
2026-05-04 01:09 44.99766 -93.22847 9212 ft 279 kts 75°
2026-05-04 01:09 45.00207 -93.20108 9747 ft 297 kts 75°
2026-05-04 01:10 45.00674 -93.17182 10164 ft 314 kts 75°
2026-05-04 01:10 45.01029 -93.14006 10407 ft 340 kts 86°
2026-05-04 01:10 45.00797 -93.10563 10705 ft 362 kts 103°
2026-05-04 01:10 44.99887 -93.07207 11320 ft 369 kts 120°
2026-05-04 01:11 44.98447 -93.04189 12017 ft 373 kts 127°
2026-05-04 01:11 44.96911 -93.01199 12748 ft 378 kts 127°
2026-05-04 01:11 44.95366 -92.98160 13465 ft 383 kts 127°
2026-05-04 01:11 44.93808 -92.95082 14099 ft 387 kts 126°
2026-05-04 01:12 44.92236 -92.91984 14759 ft 390 kts 126°
2026-05-04 01:12 44.90646 -92.88858 15401 ft 393 kts 126°
2026-05-04 01:12 44.89043 -92.85711 16031 ft 397 kts 126°
2026-05-04 01:12 44.87422 -92.82538 16688 ft 400 kts 126°
2026-05-04 01:13 44.85772 -92.79320 17334 ft 403 kts 126°
2026-05-04 01:13 44.84136 -92.76137 17951 ft 406 kts 126°
2026-05-04 01:13 44.82468 -92.72901 18488 ft 410 kts 126°
2026-05-04 01:13 44.80784 -92.69639 19021 ft 414 kts 126°
2026-05-04 01:14 44.79073 -92.66322 19557 ft 417 kts 126°
2026-05-04 01:14 44.77373 -92.63028 20074 ft 421 kts 126°
2026-05-04 01:14 44.75643 -92.59680 20600 ft 425 kts 126°
2026-05-04 01:14 44.73898 -92.56303 21129 ft 428 kts 126°
2026-05-04 01:15 44.72142 -92.52909 21648 ft 432 kts 126°
2026-05-04 01:15 44.70328 -92.49411 22182 ft 436 kts 126°
2026-05-04 01:15 44.68541 -92.45951 22694 ft 439 kts 125°
2026-05-04 01:15 44.66746 -92.42453 23186 ft 442 kts 125°
2026-05-04 01:16 44.64946 -92.38927 23617 ft 446 kts 124°
2026-05-04 01:16 44.63133 -92.35371 24036 ft 448 kts 124°
2026-05-04 01:16 44.61316 -92.31809 24445 ft 451 kts 124°
2026-05-04 01:16 44.59484 -92.28229 24849 ft 453 kts 124°
2026-05-04 01:17 44.57658 -92.24680 25234 ft 455 kts 124°
2026-05-04 01:17 44.55798 -92.21078 25616 ft 457 kts 124°
2026-05-04 01:17 44.53901 -92.17411 25997 ft 460 kts 124°
2026-05-04 01:17 44.52042 -92.13819 26364 ft 462 kts 124°
2026-05-04 01:18 44.50149 -92.10162 26732 ft 464 kts 124°
2026-05-04 01:18 44.48220 -92.06447 27107 ft 466 kts 124°
2026-05-04 01:18 44.46305 -92.02765 27457 ft 469 kts 124°
2026-05-04 01:18 44.44406 -91.99113 27798 ft 471 kts 124°
2026-05-04 01:19 44.42474 -91.95394 28140 ft 473 kts 124°
2026-05-04 01:19 44.40532 -91.91667 28472 ft 476 kts 124°
2026-05-04 01:19 44.38574 -91.87919 28774 ft 478 kts 124°
2026-05-04 01:19 44.36721 -91.84067 29089 ft 478 kts 117°
2026-05-04 01:20 44.35158 -91.79973 29382 ft 479 kts 115°
2026-05-04 01:20 44.33601 -91.75843 29656 ft 481 kts 115°
2026-05-04 01:20 44.32030 -91.71701 29931 ft 483 kts 115°
2026-05-04 01:20 44.30446 -91.67560 30164 ft 485 kts 115°
2026-05-04 01:21 44.28847 -91.63394 30377 ft 487 kts 115°
2026-05-04 01:21 44.27248 -91.59222 30619 ft 488 kts 115°
2026-05-04 01:21 44.25647 -91.55043 30835 ft 490 kts 115°
2026-05-04 01:21 44.24036 -91.50846 31081 ft 490 kts 116°
2026-05-04 01:22 44.22434 -91.46653 31391 ft 490 kts 116°
2026-05-04 01:22 44.20835 -91.42461 31675 ft 490 kts 116°
2026-05-04 01:22 44.19231 -91.38267 31961 ft 490 kts 116°
2026-05-04 01:22 44.17626 -91.34092 32230 ft 490 kts 116°
2026-05-04 01:23 44.16007 -91.29903 32511 ft 490 kts 116°
2026-05-04 01:23 44.14384 -91.25728 32790 ft 490 kts 116°
2026-05-04 01:23 44.12757 -91.21545 33064 ft 491 kts 116°
2026-05-04 01:23 44.11132 -91.17361 33343 ft 491 kts 116°
2026-05-04 01:24 44.09510 -91.13171 33605 ft 491 kts 116°
2026-05-04 01:24 44.07890 -91.08982 33854 ft 492 kts 116°
2026-05-04 01:24 44.06270 -91.04805 34096 ft 492 kts 116°
2026-05-04 01:24 44.04649 -91.00645 34321 ft 492 kts 117°
2026-05-04 01:25 44.03010 -90.96457 34553 ft 492 kts 117°
2026-05-04 01:25 44.01372 -90.92267 34771 ft 492 kts 117°
2026-05-04 01:25 43.99758 -90.88141 34987 ft 492 kts 117°
2026-05-04 01:25 43.98095 -90.83897 35201 ft 493 kts 117°
2026-05-04 01:26 43.96456 -90.79719 35420 ft 493 kts 117°
2026-05-04 01:26 43.94842 -90.75620 35613 ft 493 kts 117°
2026-05-04 01:26 43.93167 -90.71384 35815 ft 493 kts 117°
2026-05-04 01:26 43.91525 -90.67229 36021 ft 493 kts 117°
2026-05-04 01:27 43.89873 -90.63047 36209 ft 493 kts 117°
2026-05-04 01:27 43.88225 -90.58870 36407 ft 493 kts 117°
2026-05-04 01:27 43.86581 -90.54708 36593 ft 493 kts 117°
2026-05-04 01:27 43.84932 -90.50546 36721 ft 493 kts 117°
2026-05-04 01:28 43.83278 -90.46389 36717 ft 492 kts 117°
2026-05-04 01:28 43.79972 -90.38089 36717 ft 492 kts 117°
2026-05-04 01:29 43.76663 -90.29797 36714 ft 492 kts 117°
2026-05-04 01:29 43.73346 -90.21521 36718 ft 492 kts 118°
2026-05-04 01:30 43.70022 -90.13253 36724 ft 492 kts 118°
2026-05-04 01:30 43.66697 -90.05001 36745 ft 492 kts 118°
2026-05-04 01:31 43.63368 -89.96750 36755 ft 492 kts 118°
2026-05-04 01:31 43.60025 -89.88511 36760 ft 492 kts 118°
2026-05-04 01:32 43.56670 -89.80265 36767 ft 492 kts 118°
2026-05-04 01:32 43.53781 -89.71752 36770 ft 490 kts 109°
2026-05-04 01:33 43.51302 -89.63061 36773 ft 490 kts 110°
2026-05-04 01:33 43.48773 -89.54284 36762 ft 490 kts 110°
2026-05-04 01:34 43.46242 -89.45550 36763 ft 490 kts 110°
2026-05-04 01:34 43.43723 -89.36826 36759 ft 491 kts 110°
2026-05-04 01:35 43.41226 -89.28163 36758 ft 491 kts 110°
2026-05-04 01:35 43.38695 -89.19449 36757 ft 491 kts 110°
2026-05-04 01:36 43.36150 -89.10751 36759 ft 491 kts 110°
2026-05-04 01:36 43.34013 -89.03454 36756 ft 491 kts 110°
2026-05-04 01:37 43.31446 -88.94704 36761 ft 491 kts 110°
2026-05-04 01:37 43.28885 -88.86022 36762 ft 491 kts 110°
2026-05-04 01:38 43.26317 -88.77346 36755 ft 490 kts 110°
2026-05-04 01:38 43.23749 -88.68675 36755 ft 490 kts 110°
2026-05-04 01:39 43.21167 -88.60022 36757 ft 490 kts 110°
2026-05-04 01:39 43.18576 -88.51372 36753 ft 490 kts 110°
2026-05-04 01:40 43.15977 -88.42676 36765 ft 490 kts 110°
2026-05-04 01:40 43.13381 -88.34028 36772 ft 490 kts 110°
2026-05-04 01:41 43.11347 -88.25042 36508 ft 485 kts 96°
2026-05-04 01:41 43.10820 -88.20416 36252 ft 485 kts 95°
2026-05-04 01:41 43.10319 -88.15855 35999 ft 484 kts 95°
2026-05-04 01:41 43.09819 -88.11181 35744 ft 484 kts 95°
2026-05-04 01:42 43.09331 -88.06625 35490 ft 484 kts 95°
2026-05-04 01:42 43.08840 -88.02077 35237 ft 483 kts 95°
2026-05-04 01:42 43.08346 -87.97517 35008 ft 483 kts 95°
2026-05-04 01:42 43.07851 -87.92971 34765 ft 483 kts 95°
2026-05-04 01:43 43.07354 -87.88426 34520 ft 482 kts 95°
2026-05-04 01:43 43.06852 -87.83827 34262 ft 482 kts 95°
2026-05-04 01:43 43.06354 -87.79284 34026 ft 482 kts 95°
2026-05-04 01:43 43.05857 -87.74759 33797 ft 481 kts 95°
2026-05-04 01:44 43.05358 -87.70236 33516 ft 481 kts 95°
2026-05-04 01:44 43.04858 -87.65704 32622 ft 484 kts 95°
2026-05-04 01:44 43.04351 -87.61181 32118 ft 477 kts 95°
2026-05-04 01:44 43.03849 -87.56723 31477 ft 473 kts 95°
2026-05-04 01:45 43.03353 -87.52301 30864 ft 469 kts 95°
2026-05-04 01:45 43.02859 -87.47912 30254 ft 465 kts 95°
2026-05-04 01:45 43.01884 -87.39339 29021 ft 439 kts 95°
2026-05-04 01:46 43.01413 -87.35237 28455 ft 435 kts 95°
2026-05-04 01:46 43.00949 -87.31169 27894 ft 432 kts 95°
2026-05-04 01:46 43.00489 -87.27120 27350 ft 429 kts 95°
2026-05-04 01:46 43.00027 -87.23058 26803 ft 426 kts 95°
2026-05-04 01:47 42.99577 -87.19116 26283 ft 424 kts 95°
2026-05-04 01:47 42.99120 -87.15146 25769 ft 422 kts 95°
2026-05-04 01:47 42.98660 -87.11204 25265 ft 419 kts 95°
2026-05-04 01:47 42.98199 -87.07275 24771 ft 417 kts 96°
2026-05-04 01:48 42.97734 -87.03322 24277 ft 416 kts 96°
2026-05-04 01:48 42.97276 -86.99429 23780 ft 414 kts 96°
2026-05-04 01:48 42.96821 -86.95551 23280 ft 413 kts 96°
2026-05-04 01:48 42.96368 -86.91688 22739 ft 410 kts 96°
2026-05-04 01:49 42.95918 -86.87860 22244 ft 407 kts 96°
2026-05-04 01:49 42.95469 -86.84056 21744 ft 405 kts 96°
2026-05-04 01:49 42.95018 -86.80273 21247 ft 403 kts 96°
2026-05-04 01:49 42.94566 -86.76513 20741 ft 401 kts 97°
2026-05-04 01:50 42.94116 -86.72759 20236 ft 400 kts 97°
2026-05-04 01:50 42.93669 -86.69023 19716 ft 399 kts 97°
2026-05-04 01:50 42.93222 -86.65296 19204 ft 398 kts 97°
2026-05-04 01:50 42.92773 -86.61565 18693 ft 397 kts 97°
2026-05-04 01:51 42.92323 -86.57851 18202 ft 397 kts 97°
2026-05-04 01:51 42.91871 -86.54158 17709 ft 384 kts 97°
2026-05-04 01:51 42.91434 -86.50593 16938 ft 378 kts 97°
2026-05-04 01:51 42.91004 -86.47077 16177 ft 373 kts 97°
2026-05-04 01:52 42.90581 -86.43608 15446 ft 369 kts 98°
2026-05-04 01:52 42.90165 -86.40183 14720 ft 364 kts 98°
2026-05-04 01:52 42.89760 -86.36792 14012 ft 360 kts 98°
2026-05-04 01:52 42.89365 -86.33429 13281 ft 357 kts 98°
2026-05-04 01:53 42.88983 -86.30112 12516 ft 352 kts 98°
2026-05-04 01:53 42.88611 -86.26830 11770 ft 348 kts 98°
2026-05-04 01:53 42.88245 -86.23533 11108 ft 347 kts 97°
2026-05-04 01:53 42.87890 -86.20284 10737 ft 344 kts 97°
2026-05-04 01:54 42.87660 -86.18183 10485 ft 342 kts 97°
2026-05-04 01:54 42.87312 -86.14975 10276 ft 333 kts 97°
2026-05-04 01:54 42.86979 -86.11886 9988 ft 318 kts 97°
2026-05-04 01:54 42.86631 -86.08903 9401 ft 313 kts 99°
2026-05-04 01:55 42.86275 -86.05999 8751 ft 309 kts 99°
2026-05-04 01:55 42.85920 -86.03115 8086 ft 307 kts 99°
2026-05-04 01:55 42.85565 -86.00220 7455 ft 303 kts 99°
2026-05-04 01:55 42.85233 -85.97493 7321 ft 281 kts 99°
2026-05-04 01:56 42.84923 -85.94945 7067 ft 268 kts 99°
2026-05-04 01:56 42.84621 -85.92453 6784 ft 264 kts 100°
2026-05-04 01:56 42.84342 -85.89955 6462 ft 263 kts 92°
2026-05-04 01:56 42.84617 -85.87538 6136 ft 257 kts 63°
2026-05-04 01:57 42.85660 -85.85699 5978 ft 240 kts 27°
2026-05-04 01:57 42.87115 -85.84621 5987 ft 242 kts 17°
2026-05-04 01:57 42.88677 -85.83660 5991 ft 246 kts 21°
2026-05-04 01:57 42.90052 -85.82215 5995 ft 253 kts 37°
2026-05-04 01:58 42.91325 -85.80546 5997 ft 254 kts 38°
2026-05-04 01:58 42.92563 -85.78877 5808 ft 252 kts 39°
2026-05-04 01:58 42.93808 -85.77192 5458 ft 252 kts 39°
2026-05-04 01:58 42.95051 -85.75510 5121 ft 252 kts 39°
2026-05-04 01:59 42.96291 -85.73832 4807 ft 251 kts 39°
2026-05-04 01:59 42.97531 -85.72153 4463 ft 251 kts 40°
2026-05-04 01:59 42.98787 -85.70455 4118 ft 251 kts 40°
2026-05-04 01:59 42.99998 -85.68820 3943 ft 243 kts 41°
2026-05-04 02:00 43.01198 -85.67199 3823 ft 235 kts 41°
2026-05-04 02:00 43.02330 -85.65668 3733 ft 223 kts 41°
2026-05-04 02:00 43.03258 -85.64040 3578 ft 212 kts 65°
2026-05-04 02:00 43.03625 -85.62143 3448 ft 192 kts 85°
2026-05-04 02:01 43.03804 -85.60389 3250 ft 181 kts 88°
2026-05-04 02:01 43.03933 -85.58697 2959 ft 176 kts 100°
2026-05-04 02:01 43.03549 -85.57333 2735 ft 139 kts 152°
2026-05-04 02:01 43.02742 -85.56806 2625 ft 126 kts 176°
2026-05-04 02:02 43.01875 -85.56542 2571 ft 130 kts 178°
2026-05-04 02:02 43.00989 -85.56239 2515 ft 131 kts 176°
2026-05-04 02:02 43.00107 -85.55927 2505 ft 131 kts 176°
2026-05-04 02:02 42.99227 -85.55566 2508 ft 133 kts 172°
2026-05-04 02:03 42.98355 -85.55148 2498 ft 132 kts 172°
2026-05-04 02:03 42.97478 -85.54798 2502 ft 131 kts 173°
2026-05-04 02:03 42.96594 -85.54476 2501 ft 132 kts 175°
2026-05-04 02:03 42.95708 -85.54158 2317 ft 131 kts 174°
2026-05-04 02:04 42.94826 -85.53846 2130 ft 131 kts 173°
2026-05-04 02:04 42.93937 -85.53529 1920 ft 132 kts 172°
2026-05-04 02:04 42.93057 -85.53207 1721 ft 133 kts 169°
2026-05-04 02:04 42.92146 -85.52900 1485 ft 133 kts 173°
2026-05-04 02:05 42.91246 -85.52655 1283 ft 132 kts 170°
2026-05-04 02:05 42.90294 -85.52405 1269 ft 155 kts 171°
2026-05-04 02:05 42.89220 -85.52130 2164 ft 155 kts 176°
2026-05-04 02:05 42.88158 -85.51861 2934 ft 162 kts 180°
2026-05-04 02:06 42.86914 -85.51581 2980 ft 192 kts 180°
2026-05-04 02:06 42.85565 -85.51276 2985 ft 199 kts 179°
2026-05-04 02:06 42.84197 -85.50961 3001 ft 200 kts 179°
2026-05-04 02:06 42.82800 -85.50640 3003 ft 200 kts 179°
2026-05-04 02:07 42.81433 -85.50330 3003 ft 199 kts 179°
2026-05-04 02:07 42.80064 -85.50027 3006 ft 199 kts 180°
2026-05-04 02:07 42.78688 -85.49719 3007 ft 200 kts 177°
2026-05-04 02:07 42.77333 -85.49258 3004 ft 203 kts 173°
2026-05-04 02:08 42.75977 -85.48699 3007 ft 204 kts 171°
2026-05-04 02:08 42.74619 -85.48341 3001 ft 191 kts 195°
2026-05-04 02:08 42.73551 -85.49186 3010 ft 180 kts 237°
2026-05-04 02:08 42.73325 -85.50861 3011 ft 189 kts 268°
2026-05-04 02:09 42.73620 -85.52629 3012 ft 198 kts 286°
2026-05-04 02:09 42.74550 -85.54097 3008 ft 222 kts 322°
2026-05-04 02:09 42.76140 -85.54439 3008 ft 247 kts
2026-05-04 02:09 42.77658 -85.53305 3009 ft 257 kts 49°
2026-05-04 02:10 42.78669 -85.51293 3008 ft 259 kts 60°
2026-05-04 02:10 42.79470 -85.49112 2998 ft 255 kts 81°
2026-05-04 02:10 42.79579 -85.46757 3007 ft 245 kts 105°
2026-05-04 02:10 42.79147 -85.44573 3009 ft 234 kts 125°
2026-05-04 02:11 42.78257 -85.42829 3007 ft 219 kts 147°
2026-05-04 02:11 42.77020 -85.41720 3006 ft 204 kts 169°
2026-05-04 02:11 42.75675 -85.41333 3012 ft 192 kts 187°
2026-05-04 02:11 42.74394 -85.41589 3012 ft 183 kts 205°
2026-05-04 02:12 42.73258 -85.42403 3006 ft 181 kts 220°
2026-05-04 02:12 42.72374 -85.43619 3010 ft 181 kts 231°
2026-05-04 02:12 42.71630 -85.44999 3010 ft 181 kts 242°
2026-05-04 02:12 42.71496 -85.46698 3002 ft 192 kts 278°
2026-05-04 02:13 42.72242 -85.48277 3012 ft 211 kts 307°
2026-05-04 02:13 42.73004 -85.49131 3010 ft 216 kts 312°
2026-05-04 02:13 42.74644 -85.50751 3011 ft 219 kts 314°
2026-05-04 02:13 42.75490 -85.51583 3010 ft 219 kts 314°
2026-05-04 02:14 42.76716 -85.52783 3009 ft 218 kts 314°
2026-05-04 02:14 42.77933 -85.53987 3226 ft 217 kts 314°
2026-05-04 02:14 42.79145 -85.55199 3475 ft 214 kts 314°
2026-05-04 02:14 42.80341 -85.56394 3723 ft 212 kts 314°
2026-05-04 02:15 42.81523 -85.57589 3930 ft 211 kts 314°
2026-05-04 02:15 42.82689 -85.58787 3996 ft 209 kts 314°
2026-05-04 02:15 42.83848 -85.59995 4005 ft 209 kts 314°
2026-05-04 02:15 42.85001 -85.61203 4006 ft 209 kts 314°
2026-05-04 02:16 42.86153 -85.62409 4008 ft 209 kts 314°
2026-05-04 02:16 42.87321 -85.63632 4006 ft 209 kts 314°
2026-05-04 02:16 42.88457 -85.64827 4008 ft 209 kts 314°
2026-05-04 02:16 42.89605 -85.66041 4006 ft 209 kts 314°
2026-05-04 02:17 42.90757 -85.67260 4007 ft 209 kts 314°
2026-05-04 02:17 42.91932 -85.68514 4005 ft 209 kts 314°
2026-05-04 02:17 42.93075 -85.69736 4003 ft 208 kts 314°
2026-05-04 02:17 42.94248 -85.70907 3997 ft 213 kts 324°
2026-05-04 02:18 42.95724 -85.71500 4005 ft 224 kts 342°
2026-05-04 02:18 42.97273 -85.71823 4006 ft 225 kts 344°
2026-05-04 02:18 42.98821 -85.72115 4004 ft 225 kts 344°
2026-05-04 02:18 43.00370 -85.72405 4005 ft 225 kts 344°
2026-05-04 02:19 43.01924 -85.72690 4002 ft 225 kts 344°
2026-05-04 02:19 43.03478 -85.72975 4005 ft 226 kts 344°
2026-05-04 02:19 43.05041 -85.73260 4003 ft 226 kts 344°
2026-05-04 02:19 43.06600 -85.73546 4001 ft 225 kts 344°
2026-05-04 02:20 43.08153 -85.73831 3999 ft 225 kts 344°
2026-05-04 02:20 43.09727 -85.73945 4000 ft 232 kts 359°
2026-05-04 02:20 43.11323 -85.73302 3999 ft 242 kts 22°
2026-05-04 02:20 43.12678 -85.71894 3999 ft 250 kts 45°
2026-05-04 02:21 43.13600 -85.69906 3998 ft 253 kts 68°
2026-05-04 02:21 43.13976 -85.67530 4001 ft 253 kts 86°
2026-05-04 02:21 43.14147 -85.65162 4002 ft 249 kts 85°
2026-05-04 02:21 43.14323 -85.62833 3994 ft 237 kts 87°
2026-05-04 02:22 43.14132 -85.60667 3992 ft 225 kts 121°
2026-05-04 02:22 43.13217 -85.59052 4004 ft 209 kts 154°
2026-05-04 02:22 43.11949 -85.58230 4013 ft 200 kts 169°
2026-05-04 02:22 43.10660 -85.57567 4003 ft 201 kts 168°
2026-05-04 02:23 43.09333 -85.56880 4007 ft 201 kts 168°
2026-05-04 02:23 43.08041 -85.56209 4004 ft 201 kts 168°
2026-05-04 02:23 43.06721 -85.55628 4005 ft 195 kts 180°
2026-05-04 02:23 43.05444 -85.55358 4032 ft 177 kts 181°
2026-05-04 02:24 43.04255 -85.55100 3879 ft 169 kts 182°
2026-05-04 02:24 43.03114 -85.54862 3624 ft 167 kts 181°
2026-05-04 02:24 43.01958 -85.54620 3385 ft 164 kts 181°
2026-05-04 02:24 43.00844 -85.54385 3172 ft 160 kts 182°
2026-05-04 02:25 42.99762 -85.54155 2949 ft 155 kts 182°
2026-05-04 02:25 42.98715 -85.53933 2745 ft 149 kts 181°
2026-05-04 02:25 42.97746 -85.53724 2561 ft 135 kts 181°
2026-05-04 02:25 42.96822 -85.53531 2374 ft 131 kts 180°
2026-05-04 02:26 42.95945 -85.53352 2206 ft 129 kts 179°
2026-05-04 02:26 42.95045 -85.53168 2025 ft 128 kts 178°
2026-05-04 02:26 42.94145 -85.52985 1846 ft 130 kts 177°
2026-05-04 02:26 42.93253 -85.52803 1653 ft 130 kts 174°
2026-05-04 02:27 42.92350 -85.52616 1468 ft 129 kts 173°
2026-05-04 02:27 42.91461 -85.52432 1298 ft 129 kts 172°
2026-05-04 02:27 42.90584 -85.52250 1140 ft 128 kts 173°
2026-05-04 02:27 42.89683 -85.52070 952 ft 128 kts 173°
2026-05-04 02:28 42.88790 -85.51891 810 ft 127 kts 171°
2026-05-04 02:28 42.88017 -85.51733 797 ft 96 kts 172°
2026-05-04 02:28 42.87523 -85.51629 797 ft 47 kts 172°
2026-05-04 02:28 42.87311 -85.51622 799 ft 27 kts 188°
2026-05-04 02:29 42.87199 -85.51678 799 ft 10 kts 210°
2026-05-04 02:29 42.87174 -85.51762 798 ft 5 kts 292°
2026-05-04 02:29 42.87201 -85.51788 798 ft 4 kts 343°
2026-05-04 02:29 42.87254 -85.51798 798 ft 10 kts 351°
2026-05-04 02:30 42.87315 -85.51812 798 ft 9 kts 351°
2026-05-04 02:30 42.87376 -85.51824 798 ft 9 kts 352°
2026-05-04 02:30 42.87462 -85.51841 798 ft 16 kts 351°
2026-05-04 02:30 42.87571 -85.51864 798 ft 15 kts 351°
2026-05-04 02:31 42.87671 -85.51885 798 ft 14 kts 350°
2026-05-04 02:31 42.87765 -85.51907 797 ft 13 kts 350°
2026-05-04 02:31 42.87864 -85.51930 796 ft 20 kts 350°
2026-05-04 02:31 42.87983 -85.51954 797 ft 12 kts 352°
2026-05-04 02:32 42.88036 -85.51964 798 ft 0 kts 353°
2026-05-04 02:34 42.88045 -85.51965 798 ft 5 kts 353°
2026-05-04 02:34 42.88090 -85.52027 798 ft 9 kts 271°
2026-05-04 02:34 42.88084 -85.52088 798 ft 10 kts 261°
2026-05-04 02:34 42.88068 -85.52232 798 ft 13 kts 262°
2026-05-04 02:35 42.88060 -85.52315 798 ft 14 kts 262°
2026-05-04 02:35 42.88043 -85.52453 798 ft 16 kts 261°
2026-05-04 02:35 42.88025 -85.52608 798 ft 17 kts 261°
2026-05-04 02:35 42.88007 -85.52775 798 ft 19 kts 262°
2026-05-04 02:36 42.87992 -85.52935 798 ft 10 kts 271°
2026-05-04 02:36 42.88030 -85.52972 798 ft 8 kts
2026-05-04 02:36 42.88091 -85.52973 798 ft 9 kts 348°
2026-05-04 02:36 42.88159 -85.52992 798 ft 11 kts 349°
2026-05-04 02:37 42.88233 -85.53013 798 ft 10 kts 334°
2026-05-04 02:37 42.88297 -85.53049 798 ft 10 kts 350°
2026-05-04 02:37 42.88326 -85.53036 798 ft 5 kts 59°
2026-05-04 02:37 42.88330 -85.52992 798 ft 5 kts 85°
2026-05-04 02:38 42.88331 -85.52976 798 ft 0 kts 85°